Regional Weather Roundup
Issued by NWS

Home | Current Version | Previous Version | Text Only | Print | Product List | Glossary Off
Versions: 1 2 3 4 5 6 7 8 9 10 11 12 13 14 15 16 17 18 19 20 21 22 23 24 25 26 27 28 29 30 31 32 33 34 35 36 37 38 39 40 41 42 43 44 45 46 47 48 49 50

000
ASUS43 KIND 300509
RWRIN

WEATHER ROUNDUP FOR INDIANA
NATIONAL WEATHER SERVICE INDIANAPOLIS IN
100 AM EDT THU JUL 30 2015

NOTE: "FAIR" INDICATES FEW OR NO CLOUDS BELOW 12,000 FEET WITH NO
SIGNIFICANT WEATHER AND/OR OBSTRUCTIONS TO VISIBILITY.

* - STATION DOES NOT REPORT WEATHER SUCH AS PRECIPITATION OR FOG.

+ - STATION NOT QUALITY CONTROLLED BY THE NATIONAL WEATHER SERVICE.
    USE DATA WITH CAUTION...ESPECIALLY DEWPOINT AND RELATIVE
    HUMIDITY OBSERVATIONS.

INZ001>003-010>013-019-020-300600-
NORTHWEST INDIANA

CITY           SKY/WX    TMP DP  RH WIND       PRES   REMARKS
GARY /AIRPORT/ CLEAR     73  58  58 W6        30.04R
KNOX *+        CLEAR     66  55  68 W7        30.02R
LA PORTE +     CLEAR     68  58  71 W6        30.03R
MICHIGAN CITY+ CLEAR     70  57  64 SW5       30.02R
MONTICELLO +   PTCLDY    66  62  87 W5        30.03S
RENSSELAER +   PTCLDY    66  63  88 W6        30.05R
VALPARAISO     CLEAR     65  58  78 W8        30.03S

$$

LMZ046-743>745-300600-
SOUTHERN LAKE MICHIGAN

STATION/POSITION TIME  TEMP    WIND        PRES    WAVE
                       AIR SEA DIR/SP/G            HT
                 (UTC) (F)     (DEG/KT/KT) (MB)    (FT)
BURNS HARBOR     0400   75     260/ 12/ 14 1016.6F
MICHIGAN CITY    0400   75     230/ 14/ 15   N/A
5NW MICH CITY    0500   76 74  260/ 12/ 16   N/A     2

$$

INZ004-005-014>016-021>024-300600-
NORTH CENTRAL INDIANA

CITY           SKY/WX    TMP DP  RH WIND       PRES   REMARKS
GOSHEN         CLEAR     64  58  80 SW5       30.01R
LOGANSPORT +   PTCLDY    68  52  56 W5        30.04R
PERU/GRISSOM   MOCLDY    66  59  79 W6        30.03R
ROCHESTER +    PTCLDY    70  61  73 W6        30.03S
SOUTH BEND     CLEAR     67  60  78 SW6       30.01S
WARSAW +       CLEAR     64  59  82 W7        30.02S

$$

INZ006>009-017-018-025>027-300600-
NORTHEAST INDIANA

CITY           SKY/WX    TMP DP  RH WIND       PRES   REMARKS
ANGOLA *+      CLEAR     66  57  72 W3        30.00S
AUBURN +       CLEAR     68  57  68 CALM      30.01S
FORT WAYNE     MOCLDY    66  62  87 W6        30.02R
HUNTINGTON +   CLEAR     69  62  80 CALM      30.02S

$$

INZ028-029-035-036-043>045-051>053-300600-
WEST CENTRAL INDIANA

CITY           SKY/WX    TMP DP  RH WIND       PRES   REMARKS
CRAWFORDSVL +  PTCLDY    65  58  79 NW5         N/A
GREENCASTLE +  MOCLDY    70  57  64 NW5       30.06F
LAFAYETTE      PTCLDY    64  62  93 CALM      30.04S
TERRE HAUTE    PTCLDY    70  61  73 NW3       30.06R

$$

INZ030>032-037>040-046>048-054>057-064-065-300600-
CENTRAL INDIANA

CITY           SKY/WX    TMP DP  RH WIND       PRES   REMARKS
FISHERS *+     MOCLDY    70  63  78 NW3       30.05R
FRANKFORT +    PTCLDY   N/A N/A N/A SW3       30.07R
GREENWOOD *+   MOCLDY    73  57  56 NW6       30.05S
INDIANAPOLIS   MOCLDY    71  60  68 NW7       30.04S
-EAGLE CREEK   MOCLDY    72  62  71 NW7       30.04S
KOKOMO *+      MOCLDY    66  57  72 W6        30.04R
MARION +       PTCLDY    65  61  86 W3        30.04R
MT COMFORT *+  MOCLDY    70  61  73 NW6       30.05S
SHELBYVILLE    CLOUDY    72  62  71 NW7       30.03S
ZIONSVILLE +   MOCLDY    68  60  76 CALM      30.06S

$$

INZ033-034-041-042-049-050-058-059-300600-
EAST CENTRAL INDIANA

CITY           SKY/WX    TMP DP  RH WIND       PRES   REMARKS
MUNCIE         PTCLDY    71  61  70 NW8       30.03S

$$

INZ060-061-067>069-081>083-085>088-300600-
SOUTHWEST INDIANA

CITY           SKY/WX    TMP DP  RH WIND       PRES   REMARKS
EVANSVILLE     MOCLDY    79  64  60 N8        30.06R
HUNTINGBURG *+ CLOUDY    77  68  73 N8        30.05R
WASHINGTON +   MOCLDY    71  66  84 NW5       30.05S

$$

INZ062-063-066-070>080-084-089>092-300600-
SOUTH CENTRAL AND SOUTHEAST INDIANA

CITY           SKY/WX    TMP DP  RH WIND       PRES   REMARKS
BLOOMINGTON    MOCLDY    71  64  78 CALM      30.06S
MADISON *+     CLOUDY    75  73  94 W3        30.04S
NORTH VERNON + CLOUDY    75  75 100 NW8       30.04R
SEYMOUR +      CLOUDY    75  68  78 NW6       30.03R

$$




USA.gov is the U.S. government's official web portal to all federal, state and local government web resources and services.